Home   Weather   Lugano   Past weeks

Flag for Switzerland Past Weather in Lugano, Switzerland — Yesterday and Last 2 Weeks

Now
59 °F

Scattered clouds.


Feels Like: 57 °F
Forecast: 32 / 57 °F
Wind: 10 mph from Northeast

Location: Lugano Airport

Current Time: Apr 28, 2017 at 4:03:46 pm

Latest Report: Apr 28, 2017 at 3:20 pm


Visibility: N/A

Pressure: 29.77 "Hg

Humidity: 31%

Dew Point: 28 °F

Location of LuganoLocation

Past Weather in Lugano — Graph

°F

Lugano Temperature Yesterday

Maximum temperature yesterday: 55 °F (at 1:20 pm)
Minimum temperature yesterday: 45 °F (at 11:20 pm)
Average temperature yesterday: 50 °F

High & Low Weather Summary for the Past Weeks

 TemperatureHumidityPressure
High75 °F (Apr 13, 2:50 pm)100% (Apr 15, 5:50 am)30.42 "Hg (Apr 15, 5:50 am)
Low34 °F (Apr 21, 5:20 am)7% (Apr 20, 4:50 pm)29.62 "Hg (Apr 28, 2:50 am)
Average54 °F62%29.98 "Hg
* Reported Apr 13 2:20 pm — Apr 28 2:20 pm, Lugano, Weather by CustomWeather, © 2017

Note: Actual official high and low records may vary slightly from our data, if they occured in-between our weather recording intervals... More about our weather records

Advertising

Lugano Weather History for the Previous 24 Hours

Scroll right to see more
 ConditionsComfort  
Time TempWeatherWind HumidityBarometerVisibility
2:20 pm
Fri, Apr 28
59 °FPartly sunny.9 mph36%29.74 "HgN/A
1:50 pm59 °FScattered clouds.6 mph36%29.74 "HgN/A
1:20 pm57 °FScattered clouds.8 mph36%29.71 "HgN/A
12:50 pm57 °FScattered clouds.6 mph41%29.71 "HgN/A
12:20 pm55 °FScattered clouds.5 mph47%29.71 "HgN/A
11:50 am50 °FBroken clouds.6 mph71%29.71 "HgN/A
11:20 am48 °FBroken clouds.3 mph76%29.71 "HgN/A
10:50 am45 °FBroken clouds.5 mph81%29.68 "HgN/A
10:20 am43 °FBroken clouds.3 mph87%29.68 "HgN/A
9:50 am41 °FBroken clouds.5 mph93%29.71 "HgN/A
8:50 am41 °FLight rain. Mostly cloudy.3 mph93%29.71 "HgN/A
8:20 am41 °FRain. Mostly cloudy.8 mph87%29.71 "Hg4 mi
7:50 am41 °FRain. Partly sunny.3 mph87%29.68 "Hg4 mi
7:20 am39 °FLight rain. Partly sunny.5 mph93%29.68 "Hg4 mi
6:50 am39 °FRain. Fog.13 mph93%29.65 "Hg3 mi
6:20 am39 °FRain. More clouds than sun.17 mph93%29.62 "Hg4 mi
5:50 am41 °FRain. Fog.22 mph87%29.62 "HgN/A
5:20 am43 °FRain. Passing clouds.22 mph81%29.62 "HgN/A
4:50 am43 °FRain. Partly cloudy.10 mph81%29.62 "HgN/A
4:20 am43 °FRain showers. Light fog.16 mph87%29.62 "Hg4 mi
3:50 am43 °FSprinkles. Partly cloudy.6 mph93%29.62 "HgN/A
3:20 am43 °FSprinkles. Overcast.3 mph93%29.62 "HgN/A
2:50 am45 °FSprinkles. Partly cloudy.8 mph81%29.62 "HgN/A
2:20 am43 °FLight rain. Partly cloudy.16 mph87%29.65 "Hg4 mi
1:50 am43 °FLight rain. Passing clouds.21 mph81%29.65 "HgN/A
1:20 am43 °FRain. Passing clouds.17 mph87%29.68 "HgN/A
12:50 am43 °FHeavy rain. Passing clouds.17 mph87%29.68 "Hg4 mi
12:20 am45 °FRain. Partly cloudy.5 mph93%29.68 "Hg6 mi
11:50 pm
Thu, Apr 27
45 °FLight rain. Partly cloudy.15 mph81%29.68 "HgN/A
11:20 pm45 °FLight rain. Partly cloudy.6 mph87%29.68 "HgN/A
10:50 pm46 °FRain. Partly cloudy.3 mph87%29.68 "Hg3 mi
10:20 pm46 °FRain. Partly cloudy.5 mph87%29.68 "Hg4 mi
9:50 pm46 °FLight rain. Partly cloudy.5 mph87%29.68 "Hg6 mi
8:50 pm46 °FRain. Partly cloudy.9 mph87%29.68 "Hg4 mi
8:20 pm48 °FRain. Broken clouds.10 mph82%29.68 "Hg4 mi
7:50 pm48 °FRain. Broken clouds.8 mph87%29.68 "Hg4 mi
7:20 pm50 °FRain. Broken clouds.7 mph94%29.68 "Hg4 mi
6:50 pm52 °FRain. Fog.3 mph94%29.68 "Hg3 mi
6:20 pm52 °FLight rain. More clouds than sun.5 mph94%29.71 "Hg5 mi
5:50 pm52 °FRain. More clouds than sun.3 mph94%29.71 "Hg5 mi
5:20 pm52 °FRain. Fog.6 mph94%29.71 "Hg3 mi
4:50 pm52 °FRain. Fog.5 mph94%29.71 "Hg3 mi
4:20 pm52 °FRain. Fog.6 mph94%29.71 "Hg2 mi
Weather by CustomWeather, © 2017

See weather overviewHow to use our weather pages